Starlink 5622

operational
NORAD ID: 55358 Int'l Des: 2023-013 Owner: SPXS Country: US Constellation: starlink
LEOCIRCULAR

Über Starlink 5622

Beschreibung wird geladen...

Live-Position

3D-Globus wird geladen...

Nächste Überflüge

Höhenverlauf

Altitude vs Time

uPlot chart will show altitude changes over time

Zweizeiliger Elementsatz

1 55358U 23013AD 25260.12336523 -.00000326 00000-0 -90688-5 0 9994
2 55358 43.0037 163.1727 0001192 265.9998 94.0708 15.02533496145605
Epoch: 17. Sept. 2025 • Age: 9 hours

Aktueller Status

Höhe 562.2 km
Geschwindigkeit 7.58 km/s
Subsatellitenpunkt -16.82°S, 174.4°W
Startdatum 26. Jan. 2023
Alter 2.6 years
Typ internet

Technische Details

Klassifizierung Payload
Masse 305.00 kg
Trockenmasse 290.00 kg
Gesamtmasse 305.00 kg
Länge 0.20 m
Durchmesser 2.80 m
Spannweite 9.00 m
Form Box + pan
Hersteller SPXS
Bus-Typ Starlink
Phasenstatus In Orbit
Besitzer/Staat SPXS/US

Große Konstellationen

Loading constellations...